Content
SEND FEEDBACK

Daily
Averages
Monthly
Summary
United States of America

ST. LOUIS, MISSOURI


Home > North America > United States > Missouri
Elevation: 163 meters     Latitude: 38 45N     Longitude: 090 22W

WEATHER
 
SELECT A DAY
Number of Records: 196,619;   Date Range: 1/1/95 - 9/16/14
 
SHARE

PRINT THIS DATA

[ ← Previous Day ]
WEATHER ALMANAC - 24 APRIL, 2013
[ Next Day → ]
[ °F ]   °C
Weather ElementAverageHighLow
Temperature6.1 °C12.2 °C (4:54 pm)3 °C (9:33 am)
Dewpoint0.5 °C2.2 °C (12:54 am)-3.9 °C (3:54 pm)
Humidity70.9 %89 % (11:54 pm)34 % (3:54 pm)
Barometer1020.7 hPa1025.1 hPa (10:54 pm)1016.3 hPa (12:40 am)
Wind Speed14.3 km/h27.8 km/h (6:54 am)
Wind Gust38.9 km/h (8:54 am)
Weather ElementAverage
Visibility15.6 km
Wind DirectionW (268.5 °)

Weather ElementTotal
Precipitation0.51 mm
Heating Degree Days10.7 (Base 18.3)
Averaged from 33 records on 24 April, 2013
WEATHER CONDITIONS BREAKOUT
WIND DIRECTION BREAKOUT
WEATHER BY HOUR - 24 APRIL, 2013
[ °F ]   °C
Local TimeTemperatureDewpointHumidityBarometerVisibilityWind DirectionWind SpeedGust SpeedPrecipitationEventsConditions
12:40 AM4 °C2 °C87 %1016.3 hPa16.1 kmNorth (350°)16.7 km/h0 mmOvercast
12:54 AM4.4 °C2.2 °C86 %1017.6 hPa16.1 kmNW (310°)13 km/h0 mmOvercast
1:47 AM4 °C2 °C87 %1016.9 hPa16.1 kmNW (320°)11.1 km/hOvercast
1:54 AM4.4 °C2.2 °C86 %1017.3 hPa16.1 kmNNW (330°)14.8 km/hOvercast
2:42 AM4 °C2 °C87 %1017.3 hPa16.1 kmWNW (300°)14.8 km/hOvercast
2:54 AM4.4 °C2.2 °C86 %1017.6 hPa16.1 kmWNW (300°)13 km/hOvercast
3:06 AM4 °C2 °C87 %1017.3 hPa16.1 kmNW (310°)11.1 km/hOvercast
3:39 AM4 °C2 °C87 %1017.6 hPa14.5 kmNW (310°)11.1 km/hOvercast
3:54 AM4.4 °C2.2 °C86 %1017.9 hPa14.5 kmNW (310°)13 km/hOvercast
4:14 AM4 °C2 °C87 %1017.9 hPa14.5 kmWNW (300°)13 km/hOvercast
4:54 AM4.4 °C1.7 °C83 %1018.6 hPa16.1 kmNW (320°)18.5 km/hOvercast
5:54 AM4.4 °C1.7 °C83 %1018.3 hPa16.1 kmNW (320°)14.8 km/hOvercast
6:24 AM4 °C2 °C87 %1018.6 hPa16.1 kmWNW (300°)25.9 km/hOvercast
6:54 AM3.3 °C1.1 °C86 %1020 hPa6.4 kmNW (310°)27.8 km/h0.25 mmRainLight Rain
7:54 AM3.3 °C1.1 °C86 %1021.3 hPa16.1 kmWNW (290°)16.7 km/h0 mmRainLight Rain
8:54 AM3.3 °C1.1 °C86 %1022.4 hPa16.1 kmWNW (290°)20.4 km/h38.9 km/h0.25 mmOvercast
9:33 AM3 °C1 °C87 %1022.4 hPa16.1 kmWNW (290°)22.2 km/h35.2 km/hOvercast
9:54 AM3.9 °C0.6 °C79 %1022.7 hPa16.1 kmNW (310°)18.5 km/hOvercast
10:54 AM6.1 °C0.6 °C68 %1022.4 hPa16.1 kmNW (310°)22.2 km/h35.2 km/hMostly Cloudy
11:54 AM7.8 °C-0.6 °C56 %1022.4 hPa16.1 kmNNW (330°)24.1 km/h33.3 km/hMostly Cloudy
12:49 PM9 °C-1 °C50 %1022.4 hPa16.1 kmWNW (300°)20.4 km/h33.3 km/hPartly Cloudy
12:54 PM8.9 °C-1.7 °C48 %1022.7 hPa16.1 kmWNW (300°)14.8 km/h33.3 km/hPartly Cloudy
1:54 PM10 °C-3.3 °C39 %1022.7 hPa16.1 kmWest (260°)9.3 km/hScattered Clouds
2:54 PM11.7 °C-2.2 °C38 %1022.7 hPa16.1 kmNW (310°)14.8 km/hPartly Cloudy
3:54 PM11.7 °C-3.9 °C34 %1022.4 hPa16.1 kmNW (310°)13 km/hPartly Cloudy
4:54 PM12.2 °C-2.2 °C37 %1022.7 hPa16.1 kmSSW (210°)9.3 km/hPartly Cloudy
5:54 PM12.2 °C-2.2 °C37 %1022.4 hPa16.1 kmWSW (250°)16.7 km/hPartly Cloudy
6:54 PM10.6 °C-1.1 °C44 %1022.7 hPa16.1 kmWSW (240°)14.8 km/hClear
7:54 PM9.4 °C-0.6 °C50 %1023.4 hPa16.1 kmSW (230°)7.4 km/hClear
8:54 PM8.3 °C0 °C56 %1024 hPa16.1 kmWSW (240°)7.4 km/hClear
9:54 PM5.6 °C1.1 °C73 %1024.7 hPa16.1 kmCalmClear
10:54 PM4.4 °C1.1 °C79 %1025.1 hPa16.1 kmCalmClear
11:54 PM3.3 °C1.7 °C89 %1025.1 hPa16.1 kmCalmClear
Hourly data recorded from KSUS, located 0 kilometers away from St. Louis, Missouri







STORIES FROM OUR PARTNERS